[[{"header":{"parameterUnit":"m.s-1","parameterCategory":1,"la1":30.2991,"la2":30.254,"lo1":-89.0895,"lo2":-89.0444,"dy":0.0017,"dx":0.0017,"nx":28,"ny":28,"refTime":"2025-06-03T21:00:00:Z","depth":0,"parameterNumber":2,"parameterNumberName":"U-component_of_WINDS"},"data":[0,0,0,0,0,0,0,0,0,0,0,0,0,0,0,0,0,0,0,0,0,0,0,0,0,0,0,0,0,0,0,0,0,0,0,0,0,0,0,0,0,0,0,0,0,0,0,0,0,0,0,0,0,0,0,0,0,0,-4.18,-4.18,0,-4.1786,-4.1786,-4.1786,-4.1691,-4.1689,-4.1686,-4.1684,-4.1672,-4.1674,-4.1676,0,0,0,0,0,0,0,0,0,0,0,0,0,-4.1747,-4.1749,-4.18,-4.18,-4.18,-4.1786,-4.1786,-4.1786,-4.1691,-4.1689,-4.1686,-4.1683,-4.1672,-4.1674,-4.1676,0,0,0,0,0,0,0,0,0,0,0,0,0,-4.1756,-4.1749,-4.18,-4.1751,-4.1746,-4.1786,-4.1786,-4.1786,-4.1692,-4.1688,-4.1685,-4.1682,-4.1671,-4.1674,-4.1676,-4.1763,0,0,-4.1685,-4.1686,0,0,0,0,0,0,0,0,-4.1755,-4.1758,-4.1758,-4.1754,-4.1749,-4.1737,-4.1763,-4.1778,-4.1693,-4.1713,-4.1684,-4.168,-4.1697,-4.1697,-4.1702,-4.1763,-4.1762,-4.1685,-4.1687,-4.1688,-4.1689,0,0,0,0,0,0,0,-4.1755,-4.1758,-4.1795,-4.1758,-4.1753,-4.173,-4.1728,-4.1766,-4.1725,-4.1711,-4.1704,-4.1703,-4.1694,-4.17,-4.1701,-4.1762,-4.1685,-4.1687,-4.1689,-4.169,-4.1896,-4.1899,0,0,0,0,0,0,-4.1761,-4.1758,-4.1795,-4.1794,-4.1744,-4.1734,-4.1731,-4.1744,-4.1724,-4.1717,-4.1706,-4.1699,-4.1697,-4.1698,-4.1701,-4.1803,-4.1688,-4.1691,-4.1692,-4.1892,-4.1897,-4.1901,0,0,0,0,0,0,-4.176,-4.1765,-4.1796,-4.1774,-4.1776,-4.1739,-4.1754,-4.1746,-4.1752,-4.172,-4.1713,-4.172,-4.1694,-4.1697,-4.1749,-4.1801,-4.1692,-4.1694,-4.1887,-4.1893,-4.1899,-4.2007,0,0,0,0,0,0,-4.1759,-4.1765,-4.1797,-4.1776,-4.1778,-4.1844,-4.1757,-4.1748,-4.1757,-4.1747,-4.1731,-4.1725,-4.1692,-4.1745,-4.1752,-4.1803,-4.1696,-4.1883,-4.189,-4.1897,-4.1999,-4.2016,-4.2031,0,0,0,0,0,-4.1757,-4.1828,-4.1799,-4.1804,-4.1817,-4.1847,-4.1848,-4.1807,-4.1761,-4.1794,-4.1774,-4.1726,-4.1794,-4.1751,-4.1758,-4.1811,-4.1879,-4.1888,-4.1896,-4.1992,-4.2013,-4.203,0,0,0,0,0,0,-4.1857,-4.1825,-4.1792,-4.1858,-4.1856,-4.1831,-4.187,-4.183,-4.1841,-4.1832,-4.1781,-4.1778,-4.1839,-4.1829,-4.1783,-4.1895,-4.1828,-4.1839,-4.1899,-4.1919,-4.1934,-4.1936,-4.1699,0,0,0,0,0,-4.1887,-4.1913,-4.1883,-4.1945,-4.1945,-4.1908,-4.192,-4.1888,-4.1884,-4.1883,-4.1867,-4.1866,-4.1887,-4.1902,-4.1919,-4.1997,-4.1993,-4.2036,-4.2052,-4.2065,-4.2075,-4.2118,-4.2138,-4.1929,-4.1929,-4.1928,0,0,-4.1949,-4.1934,-4.1954,-4.1964,-4.1959,-4.1989,-4.1908,-4.1942,-4.1964,-4.1888,-4.1937,-4.1925,-4.1921,-4.1987,-4.2015,-4.1981,-4.2132,-4.2076,-4.2087,-4.209,-4.2129,-4.2149,-4.2166,-4.1934,-4.1933,-4.1932,0,0,-4.2077,-4.2068,-4.2119,-4.2115,-4.2108,-4.2083,-4.2096,-4.2077,-4.2066,-4.2114,-4.2058,-4.2084,-4.2121,-4.212,-4.2125,-4.2255,-4.2212,-4.2262,-4.2345,-4.2387,-4.2404,-4.2418,-4.2467,-4.2485,-4.2271,-4.2272,-4.2272,0,-4.2155,-4.2196,-4.215,-4.2189,-4.2196,-4.2128,-4.218,-4.2179,-4.2179,-4.2186,-4.2147,-4.2194,-4.2185,-4.2251,-4.2283,-4.2288,-4.2303,-4.2264,-4.2405,-4.2419,-4.2432,-4.2478,-4.2496,-4.2278,-4.2277,-4.2277,-4.2276,0,-4.2294,-4.2324,-4.2366,-4.2367,-4.2379,-4.2424,-4.2386,-4.2403,-4.2371,-4.2351,-4.2402,-4.239,-4.2405,-4.2417,-4.2386,-4.248,-4.2459,-4.2414,-4.2346,-4.2459,-4.2501,-4.2518,-4.2287,-4.2285,-4.2283,-4.2281,0,0,-4.2485,-4.246,-4.2477,-4.2478,-4.2465,-4.2488,-4.2531,-4.2545,-4.2562,-4.2564,-4.26,-4.2634,-4.2592,-4.2598,-4.2566,-4.2603,-4.2709,-4.2553,-4.2552,-4.2584,-4.2814,-4.285,-4.2871,-4.268,-4.2683,-4.2685,-4.2815,0,-4.261,-4.2681,-4.2641,-4.2719,-4.2747,-4.2683,-4.2721,-4.2718,-4.2701,-4.2723,-4.2703,-4.2729,-4.2671,-4.2674,-4.2707,-4.2689,-4.2755,-4.2679,-4.2715,-4.2717,-4.272,-4.2893,-4.293,-4.3053,-4.2831,-4.2834,-4.2836,0,-4.2765,-4.2774,-4.2854,-4.2838,-4.2849,-4.2883,-4.2894,-4.2915,-4.2912,-4.2897,-4.2904,-4.2863,-4.2906,-4.2838,-4.2897,-4.2846,-4.2859,-4.2852,-4.2856,-4.2859,-4.2785,-4.2903,-4.3091,-4.3111,-4.2861,-4.2859,-4.2857,0,-4.2899,-4.2931,-4.2984,-4.2986,-4.2968,-4.2994,-4.2988,-4.2981,-4.2993,-4.3003,-4.301,-4.3025,-4.3033,-4.3046,-4.3012,-4.2965,-4.3077,-4.3005,-4.3067,-4.3068,-4.3095,-4.3094,-4.329,-4.3099,-4.3099,-4.3099,-4.3098,0,-4.3043,-4.3096,-4.3044,-4.3077,-4.3134,-4.3088,-4.3147,-4.3134,-4.3128,-4.3159,-4.3104,-4.3134,-4.3085,-4.3111,-4.3084,-4.3139,-4.3142,-4.3133,-4.3125,-4.3139,-4.314,-4.3147,-4.3139,-4.3104,-4.3103,-4.3102,-4.3101,0,-4.3204,-4.3171,-4.3225,-4.3204,-4.32,-4.3243,-4.3226,-4.3256,-4.3235,-4.3274,-4.328,-4.3248,-4.3275,-4.3241,-4.3265,-4.3247,-4.3322,-4.3301,-4.3324,-4.3318,-4.3383,-4.3378,-4.3592,-4.3619,-4.341,-4.3412,-4.3413,0,-4.3299,-4.3338,-4.3321,-4.3338,-4.3335,-4.3361,-4.3373,-4.333,-4.3345,-4.3344,-4.3375,-4.3398,-4.3414,-4.3461,-4.344,-4.3458,-4.3439,-4.3512,-4.3441,-4.3454,-4.3443,-4.3442,-4.3447,-4.3528,-4.353,-4.3532,-4.3534,0,-4.3473,-4.3455,-4.3474,-4.3488,-4.3504,-4.3513,-4.3518,-4.3534,-4.3489,-4.3509,-4.3536,-4.3548,-4.3573,-4.3597,-4.361,-4.3605,-4.3564,-4.3556,-4.3572,-4.3587,-4.36,-4.3596,-4.3366,-4.3552,-4.355,-4.3549,-4.3548,-4.3547,-4.3605,-4.3637,-4.3631,-4.3655,-4.3654,-4.366,-4.3688,-4.3671,-4.3692,-4.3709,-4.3682,-4.3717,-4.3714,-4.3727,-4.3727,-4.3755,-4.3723,-4.3745,-4.3751,-4.3758,-4.3769,-4.3594,-4.3757,-4.3756,-4.3756,-4.3755,-4.3755,0,-4.3778,-4.3771,-4.3793,-4.3802,-4.3821,-4.3778,-4.3782,-4.3801,-4.3832,-4.3833,-4.385,-4.3882,-4.3905,-4.3887,-4.3906,-4.3932,-4.3914,-4.3939,-4.3938,-4.3938,-4.3795,-4.378,-4.3954,-4.3954,-4.3954,-4.3954,-4.3954,-4.3954,-4.387,-4.3924,-4.3905,-4.3959,-4.3951,-4.3985,-4.3991,-4.3997,-4.3997,-4.4036,-4.4055,-4.4042,-4.4035,-4.4054,-4.4075,-4.4069,-4.408,-4.4113,-4.41,-4.3967,-4.3948,-4.3929,-4.3915,-4.4115,-4.4115,-4.4241,-4.4242,-4.4243]},{"header":{"parameterUnit":"m.s-1","parameterCategory":1,"la1":30.2991,"la2":30.254,"lo1":-89.0895,"lo2":-89.0444,"dy":0.0017,"dx":0.0017,"nx":28,"ny":28,"refTime":"2025-06-03T21:00:00:Z","depth":0,"parameterNumber":3,"parameterNumberName":"V-component_of_WINDS"},"data":[0,0,0,0,0,0,0,0,0,0,0,0,0,0,0,0,0,0,0,0,0,0,0,0,0,0,0,0,0,0,0,0,0,0,0,0,0,0,0,0,0,0,0,0,0,0,0,0,0,0,0,0,0,0,0,0,0,0,-0.9668,-0.9669,0,-0.9691,-0.9691,-0.9692,-0.9673,-0.9672,-0.9672,-0.9671,-0.9695,-0.9696,-0.9698,0,0,0,0,0,0,0,0,0,0,0,0,0,-0.9609,-0.961,-0.9668,-0.9669,-0.9669,-0.9691,-0.9691,-0.9692,-0.9673,-0.9672,-0.9671,-0.967,-0.9695,-0.9696,-0.9698,0,0,0,0,0,0,0,0,0,0,0,0,0,-0.9634,-0.9611,-0.9668,-0.9662,-0.9662,-0.9691,-0.9691,-0.9692,-0.9673,-0.9672,-0.9671,-0.967,-0.9694,-0.9696,-0.9698,-0.9734,0,0,-0.9704,-0.9705,0,0,0,0,0,0,0,0,-0.9632,-0.9636,-0.9663,-0.9663,-0.9663,-0.9678,-0.9679,-0.9706,-0.9674,-0.9669,-0.9671,-0.9669,-0.969,-0.9693,-0.97,-0.9736,-0.9737,-0.9705,-0.9706,-0.9707,-0.9707,0,0,0,0,0,0,0,-0.9631,-0.9635,-0.9677,-0.9663,-0.9663,-0.9659,-0.9661,-0.9684,-0.9686,-0.9669,-0.9668,-0.9671,-0.969,-0.9698,-0.97,-0.9737,-0.9705,-0.9706,-0.9708,-0.9709,-0.9803,-0.9804,0,0,0,0,0,0,-0.9629,-0.9633,-0.9677,-0.9678,-0.9644,-0.9661,-0.9663,-0.9674,-0.9686,-0.9686,-0.9672,-0.967,-0.9695,-0.9698,-0.9701,-0.9744,-0.9707,-0.9709,-0.971,-0.9802,-0.9803,-0.9805,0,0,0,0,0,0,-0.9628,-0.9633,-0.9676,-0.9655,-0.966,-0.9663,-0.9676,-0.9675,-0.9683,-0.9688,-0.9688,-0.9679,-0.9694,-0.9698,-0.9726,-0.9744,-0.971,-0.9712,-0.98,-0.9802,-0.9804,-0.983,0,0,0,0,0,0,-0.9627,-0.9633,-0.9647,-0.9656,-0.9662,-0.9701,-0.9677,-0.9677,-0.9686,-0.9684,-0.9695,-0.9695,-0.9693,-0.9723,-0.9728,-0.9747,-0.9713,-0.9799,-0.9801,-0.9803,-0.9828,-0.9833,-0.9837,0,0,0,0,0,-0.9625,-0.9654,-0.9648,-0.9653,-0.9679,-0.9702,-0.9705,-0.9702,-0.9688,-0.9702,-0.9705,-0.9695,-0.9741,-0.9726,-0.9731,-0.9751,-0.9797,-0.98,-0.9803,-0.9826,-0.9832,-0.9837,0,0,0,0,0,0,-0.9648,-0.9655,-0.9648,-0.9682,-0.9691,-0.9699,-0.9716,-0.9708,-0.9722,-0.972,-0.9715,-0.9718,-0.9747,-0.9752,-0.9734,-0.9786,-0.9767,-0.9771,-0.9782,-0.9788,-0.9793,-0.9792,-0.9715,0,0,0,0,0,-0.9657,-0.9675,-0.968,-0.9708,-0.9713,-0.9714,-0.9724,-0.972,-0.973,-0.9734,-0.9739,-0.9749,-0.9766,-0.9777,-0.9793,-0.9828,-0.983,-0.9844,-0.9849,-0.9852,-0.9856,-0.9875,-0.9881,-0.9814,-0.9814,-0.9814,0,0,-0.9676,-0.9682,-0.9693,-0.9713,-0.972,-0.9739,-0.9718,-0.9738,-0.9752,-0.9737,-0.9764,-0.9768,-0.9779,-0.981,-0.9825,-0.9815,-0.9875,-0.9856,-0.9859,-0.9861,-0.9879,-0.9885,-0.9891,-0.9816,-0.9816,-0.9815,0,0,-0.972,-0.9726,-0.975,-0.9757,-0.9768,-0.9768,-0.9774,-0.9782,-0.9784,-0.981,-0.98,-0.9816,-0.9845,-0.9853,-0.9861,-0.9906,-0.9898,-0.9911,-0.9936,-0.9954,-0.996,-0.9964,-0.9981,-0.9987,-0.9915,-0.9915,-0.9915,0,-0.9742,-0.9769,-0.9764,-0.9785,-0.9794,-0.9781,-0.9805,-0.9813,-0.9828,-0.9834,-0.9823,-0.9859,-0.9865,-0.9899,-0.9909,-0.9916,-0.9923,-0.9911,-0.9959,-0.9964,-0.9968,-0.9984,-0.999,-0.9917,-0.9916,-0.9916,-0.9916,0,-0.9796,-0.9815,-0.9834,-0.9848,-0.9859,-0.9882,-0.988,-0.9891,-0.9886,-0.9887,-0.9914,-0.9921,-0.9938,-0.9945,-0.9941,-0.9977,-0.9971,-0.996,-0.9941,-0.9976,-0.9991,-0.9997,-0.9919,-0.9918,-0.9918,-0.9917,0,0,-0.9857,-0.9867,-0.9874,-0.988,-0.989,-0.9905,-0.9927,-0.9942,-0.9952,-0.9963,-0.9981,-1.0005,-0.9994,-1.0003,-1.0,-1.0015,-1.0051,-1.0002,-1.0002,-1.0011,-1.0092,-1.0101,-1.0108,-1.0045,-1.0046,-1.0047,-1.0091,0,-0.9902,-0.994,-0.9935,-0.9971,-0.9988,-0.9975,-0.9994,-1.0002,-1.0003,-1.0018,-1.0019,-1.0037,-1.0021,-1.0026,-1.0041,-1.0043,-1.0067,-1.004,-1.0062,-1.0063,-1.0061,-1.0115,-1.0125,-1.0167,-1.0097,-1.0097,-1.0098,0,-0.9959,-0.9971,-1.0009,-1.0016,-1.0023,-1.004,-1.0053,-1.0068,-1.0076,-1.0076,-1.0085,-1.0078,-1.01,-1.0079,-1.0109,-1.0091,-1.0099,-1.0102,-1.0103,-1.0106,-1.0083,-1.012,-1.018,-1.0186,-1.0107,-1.0106,-1.0106,0,-1.0,-1.0026,-1.0052,-1.0057,-1.0065,-1.0078,-1.0082,-1.0089,-1.0098,-1.011,-1.0116,-1.013,-1.0139,-1.015,-1.0147,-1.0132,-1.0177,-1.0157,-1.0178,-1.0178,-1.0189,-1.0189,-1.0252,-1.0193,-1.0193,-1.0193,-1.0193,0,-1.0051,-1.0075,-1.007,-1.0086,-1.0112,-1.0106,-1.0132,-1.0134,-1.0141,-1.0157,-1.0146,-1.0162,-1.0156,-1.0171,-1.0169,-1.0194,-1.0198,-1.0198,-1.0198,-1.02,-1.02,-1.0206,-1.0203,-1.0195,-1.0194,-1.0194,-1.0194,0,-1.0102,-1.01,-1.0127,-1.0132,-1.0134,-1.0153,-1.0157,-1.0172,-1.0171,-1.0192,-1.0196,-1.0196,-1.0213,-1.0211,-1.023,-1.0228,-1.026,-1.0255,-1.0257,-1.0256,-1.0278,-1.0276,-1.0348,-1.0357,-1.0292,-1.0293,-1.0293,0,-1.0135,-1.0153,-1.016,-1.0169,-1.0174,-1.019,-1.0199,-1.0193,-1.0204,-1.0214,-1.0228,-1.0244,-1.0256,-1.0284,-1.0286,-1.03,-1.0296,-1.032,-1.0299,-1.03,-1.0297,-1.0296,-1.0298,-1.0325,-1.0326,-1.0326,-1.0327,0,-1.0194,-1.0192,-1.0206,-1.0219,-1.023,-1.024,-1.0249,-1.0258,-1.0252,-1.0264,-1.0281,-1.0291,-1.031,-1.0326,-1.0339,-1.0343,-1.0335,-1.0333,-1.0339,-1.0342,-1.0343,-1.0343,-1.0269,-1.0332,-1.0332,-1.0331,-1.0331,-1.0331,-1.0238,-1.0253,-1.0259,-1.0275,-1.0281,-1.0289,-1.0303,-1.0304,-1.0318,-1.0333,-1.0328,-1.0348,-1.0355,-1.0372,-1.0377,-1.0392,-1.0383,-1.0392,-1.0394,-1.0396,-1.0399,-1.0339,-1.0394,-1.0394,-1.0394,-1.0394,-1.0394,0,-1.0297,-1.03,-1.0314,-1.0327,-1.0338,-1.0328,-1.0337,-1.0348,-1.0365,-1.0372,-1.0384,-1.0403,-1.0418,-1.0421,-1.0435,-1.0447,-1.0443,-1.0451,-1.045,-1.0451,-1.0406,-1.04,-1.0453,-1.0453,-1.0453,-1.0453,-1.0453,-1.0453,-1.0329,-1.0354,-1.0352,-1.0379,-1.0382,-1.0401,-1.0407,-1.0414,-1.042,-1.0442,-1.0454,-1.0455,-1.046,-1.0475,-1.0488,-1.0488,-1.0494,-1.0504,-1.0502,-1.046,-1.0454,-1.0449,-1.0443,-1.0505,-1.0505,-1.0547,-1.0547,-1.0547]}]]